{"data":{"norad_id":67902,"intl_designator":"2026-035Z","name":"STARLINK-36876","alt_names":[],"object_type":"PAYLOAD","status":"ACTIVE","operator":null,"country":"US","launch_date":"2026-02-21","launch_site_code":"AFWTR","launch_vehicle":null,"mission":null,"orbit_class":"UNKNOWN","rcs_meters":null,"size_class":null,"mass_kg":null,"dimensions":null,"purposes":["comms"],"wikipedia_slug":null,"has_3d_model":false,"image_url":null,"decayed_at":null,"tle_current":{"epoch":"2026-05-24T18:52:57.449856Z","epoch_age_seconds":107616,"freshness":"FRESH","line1":"1 67902U 26035Z   26144.78677604  .00023267  00000+0  72062-3 0  9991","line2":"2 67902  97.2852  78.3727 0001752  97.6341 262.5101 15.33452373 15658","mean_motion":15.33452373,"eccentricity":0.0001752,"inclination_deg":97.2852,"raan_deg":78.3727,"arg_perigee_deg":97.6341,"mean_anomaly_deg":262.5101,"bstar":0.00072062,"rev_number":1565,"period_min":93.905753145944,"perigee_km":464.32222878213,"apogee_km":466.72024662862,"semimajor_km":6843.6582377054,"source":"CELESTRAK","updated_at":"2026-05-25T13:38:21.736723Z"}}}